Welcome to the New NWS' Forecast!
Most changes are behind the scenes, but click here for differences you might notice.
Latest weather observations around

Whitefield - Mount Washington Regional Airport (KHIE)

Using English Units (Switch to International System of Units)
Date/ Time (EDT) Wind (mph) Vis. (mi) Weather Sky Cond. Temp (°F) Rel. Humidity Wind Chill (°F) Heat Index (°F) Pressure Precip. (in)
Air Dwpt 6 hour Altimeter (inHg) Sea level (inHg) 1 hr 3 hr 6 hr
Max Min
Sep 19 23:52 Calm 10 Mostly Cloudy BKN049 55 52     89%     30.14 30.14      
Sep 19 23:31 Calm 10 Cloudy BKN030 OVC049 55 52     89%     30.14        
Sep 19 22:52 Calm 10 Cloudy BKN025 OVC049 55 53     93%     30.14 30.14      
Sep 19 21:52 Calm 10 Cloudy FEW016 BKN027 OVC049 54 52     93%     30.12 30.13      
Sep 19 21:49 Calm 10 Cloudy SCT016 BKN027 OVC049 54 52     94%     30.12        
Sep 19 21:06 Calm 10 Cloudy SCT019 BKN034 OVC047 56 53     90%     30.12        
Sep 19 20:52 Calm 10 Cloudy BKN019 OVC034 57 54     89%     30.12 30.12      
Sep 19 20:35 Calm 10 Cloudy BKN020 BKN036 OVC048 57 54     89%     30.12        
Sep 19 19:52 Calm 10 Cloudy OVC048 58 52     81%     30.1 30.1      
Sep 19 18:52 NW 3 10 Mostly Cloudy SCT030 BKN046 59 52     78%     30.08 30.08      
Sep 19 18:31 NNW 3 10 Cloudy BKN030 OVC046 60 52     75%     30.08        
Sep 19 18:21 NNW 3 10 Cloudy BKN029 OVC038 60 52     75%     30.08        
Sep 19 17:52 NNW 5 10 Cloudy SCT027 OVC037 61 52     72%     30.05 30.05      
Sep 19 17:43 N 5 10 Cloudy BKN027 OVC040 62 53     72%     30.05        
Sep 19 16:52 NNW 6 10 Cloudy OVC039 63 52     67%     30.04 30.04      
Sep 19 15:52 NE 5 10 Cloudy OVC035 64 52     65%     30.01 30.01      
Sep 19 14:52 NNW 8 10 Cloudy OVC032 63 53     70%     30.01 30.01      
Sep 19 13:52 NW 7 10 Cloudy OVC034 65 52     63%     30.01 30.01      
Sep 19 12:52 NW 6 10 Cloudy OVC033 65 52     63%     30 30      
Sep 19 11:52 WNW 7 10 Cloudy OVC034 64 53     67%     30 29.99      
Sep 19 11:16 5 10 Cloudy FEW022 OVC036 64 54     70%     29.99        
Sep 19 09:28 N 7 10 Cloudy BKN021 OVC044 65 55     70%     29.97        
Sep 19 08:52 N 3 10 Cloudy OVC044 63 56     78%     29.96 29.96      
Sep 19 07:52 Calm 10 Cloudy OVC044 60 56     86%     29.94 29.94      
Sep 19 06:52 NE 3 10 Mostly Cloudy FEW009 SCT014 BKN045 59 56     90%     29.93 29.92      
Sep 19 05:52 N 5 10 Cloudy OVC006 60 58     93%     29.91 29.9      
Sep 19 04:52 Calm 10 Cloudy OVC008 61 58     90%     29.89 29.87      
Sep 19 04:16 N 3 10 Cloudy BKN006 OVC010 61 59     93%     29.88        
Sep 19 04:07 N 5 10 Cloudy OVC010 62 59     90%     29.88        
Sep 19 03:52 N 5 10 Cloudy OVC009 62 60     93%     29.88 29.87      
Sep 19 03:21 NW 3 10 Cloudy OVC009 63 60     90%     29.87        
Sep 19 02:52 N 3 10 Cloudy OVC011 63 60     90%     29.86 29.85      
Sep 19 02:13 Calm 10 Cloudy BKN012 OVC018 63 60     90%     29.85        
Sep 19 01:52 Calm 10 Cloudy OVC015 62 61     96%     29.85 29.83      
Sep 19 01:00 Calm 8 Mostly Cloudy BKN016 61 60     97%     29.84        
Sep 19 00:52 Calm 3 Fog/Mist BKN014 60 59     96%     29.84 29.83      
Sep 19 00:50 Calm 1.75 Fog/Mist BKN014 61 59     94%     29.84        
Sep 19 00:40 Calm 0.75 Fog/Mist VV013 60 59     96%     29.84        
Sep 19 00:38 Calm 1.5 Fog/Mist FEW014 61 59     93%     29.84        
Sep 18 23:52 Calm 6 Fog/Mist CLR 61 60     97%     29.84 29.83      
Sep 18 23:14 NNW 5 9 Partly Cloudy SCT028 64 63     96%     29.83        
Sep 18 22:52 ENE 3 10 Cloudy BKN028 OVC049 66 63     90%     29.83 29.82      
Sep 18 21:52 E 3 10 Mostly Cloudy BKN045 68 64     87%     29.83 29.82      
Sep 18 21:33 Calm 10 Cloudy SCT025 OVC046 68 64     87%     29.83        
Sep 18 21:16 Calm 10 Mostly Cloudy BKN025 BKN042 69 64     84%     29.83        
Sep 18 20:52 N 5 10 Partly Cloudy FEW030 SCT042 SCT055 69 65     87%     29.82 29.81      
Sep 18 19:52 Calm 10 Partly Cloudy SCT041 SCT080 69 65     87%     29.8 29.79      
Sep 18 18:52 W 6 10 Cloudy FEW050 SCT060 OVC080 74 66     76%   75 29.77 29.77      
Sep 18 17:52 WNW 6 10 Partly Cloudy SCT095 77 65     66%   78 29.75 29.73      
Sep 18 16:52 WNW 5 10 Partly Cloudy FEW041 FEW055 SCT095 81 64     56%   83 29.74 29.72      
Sep 18 15:52 WNW 5 10 Mostly Clear FEW060 79 63     58%   79 29.74 29.72      
Sep 18 14:52 W 7 10 Mostly Clear FEW055 81 63     54%   82 29.75 29.73      
Sep 18 13:52 3 10 Mostly Clear FEW032 79 65     62%   80 29.76 29.75      
Sep 18 11:52 5 10 Partly Cloudy FEW024 SCT030 79 66     65%   80 29.78 29.77      
Sep 18 10:52 Calm 10 Clear CLR 74 66     76%   75 29.8 29.79      
Sep 18 09:52 Calm 10 Mostly Clear FEW050 70 64     81%     29.81 29.8      
Sep 18 08:52 Calm 10 Cloudy OVC048 65 62     90%     29.82 29.82      
Sep 18 07:52 Calm 10 Mostly Cloudy BKN044 61 59     93%     29.83 29.83      
Sep 18 06:52 Calm 10 Mostly Clear FEW019 58 57     97%     29.84 29.83      
Sep 18 05:52 Calm 10 Mostly Cloudy BKN042 59 57     93%     29.86 29.85      
Sep 18 04:52 Calm 10 Clear CLR 58 57     97%     29.87 29.86      
Sep 18 03:52 Calm 10 Clear CLR 58 56     93%     29.87 29.86      
Sep 18 02:52 Calm 10 Clear CLR 59 57     93%     29.88 29.87      
Sep 18 01:52 Calm 10 Clear CLR 59 58     96%     29.91 29.9      
Sep 18 00:52 Calm 10 Mostly Cloudy BKN032 60 58     93%     29.93 29.92      
Sep 17 23:52 Calm 10 Clear CLR 60 58     93%     29.93 29.92      
Sep 17 22:52 Calm 10 Clear CLR 61 59     93%     29.94 29.93      
Sep 17 21:52 Calm 10 Clear CLR 62 60     93%     29.93 29.92      
Sep 17 20:52 Calm 10 Clear CLR 64 61     90%     29.94 29.93      
Sep 17 19:52 SW 5 10 Clear CLR 71 62     73%   71 29.94 29.93      
Sep 17 18:52 SW 6 10 Clear CLR 75 62     64%   75 29.93 29.93      
Sep 17 17:52 SSW 6 10 Clear CLR 79 61     54%   79 29.94 29.93      
Sep 17 16:52 7 10 Clear CLR 81 61     51%   82 29.96 29.94      
Sep 17 15:52 WSW 8 10 Clear CLR 82 62     51%   83 29.97 29.96      
Sep 17 14:52 7 10 Mostly Clear FEW044 83 62     49%   84 29.99 29.98      
Sep 17 13:52 WSW 9 10 Partly Cloudy SCT045 83 64     53%   84 30.02 30.01      
Sep 17 12:52 5 10 Mostly Cloudy BKN060 81 64     56%   83 30.05 30.04      
Sep 17 11:52 W 7 10 Partly Cloudy SCT065 81 65     58%   83 30.07 30.06      
Sep 17 10:52 W 8 10 Partly Cloudy FEW065 SCT080 80 67     64%   82 30.09 30.08      
Sep 17 09:52 Calm 10 Clear CLR 76 67     74%   77 30.11 30.1      
Sep 17 08:52 Calm 10 Cloudy BKN060 OVC085 71 66     84%   72 30.12 30.11      
Sep 17 07:52 Calm 8 Mostly Cloudy BKN080 64 62     93%     30.13 30.13      
Sep 17 07:03 Calm 5 Fog/Mist FEW002 SCT065 OVC075 59 59     100%     30.14        
Sep 17 06:52 Calm 6 Fog/Mist FEW039 BKN060 OVC075 59 58     96%     30.14 30.14      
Sep 17 06:33 Calm 5 Fog/Mist SCT001 SCT043 OVC060 58 57     97%     30.14        
Sep 17 06:22 Calm 3 Fog/Mist BKN001 BKN044 OVC060 58 57     97%     30.14        
Sep 17 06:18 Calm 1.25 Fog/Mist BKN001 OVC060 58 58     100%     30.14        
Sep 17 06:08 Calm 0.75 Fog/Mist OVC001 58 57     97%     30.14        
Sep 17 06:05 Calm 1.75 Fog/Mist OVC001 58 57     97%     30.14        
Sep 17 05:52 Calm 9 Cloudy OVC001 58 57     97%     30.14 30.13      
Sep 17 05:32 Calm 7 Mostly Cloudy BKN002 BKN043 58 57     97%     30.14        
Sep 17 05:12 Calm 7 Partly Cloudy FEW002 SCT041 58 57     97%     30.14        
Sep 17 04:52 Calm 5 Fog/Mist SCT040 58 57     97%     30.15 30.14      
Sep 17 04:43 Calm 4 Fog/Mist SCT001 BKN040 58 57     97%     30.15        
Sep 17 03:52 Calm 6 Fog/Mist OVC001 59 58     96%     30.16 30.14      
Sep 17 03:48 Calm 3 Fog/Mist OVC001 59 57     94%     30.16        
Sep 17 03:39 Calm 1.25 Fog/Mist OVC001 58 58     100%     30.16        
Sep 17 03:21 Calm 0.75 Fog/Mist VV001 58 58     100%     30.17        
Sep 17 03:13 Calm 1.75 Fog/Mist BKN001 BKN042 58 58     100%     30.17        
Sep 17 02:52 Calm 4 Fog/Mist BKN001 58 57     97%     30.17 30.16      
Sep 17 02:49 Calm 3 Fog/Mist BKN001 57 57     100%     30.17        
Sep 17 02:47 Calm 1.5 Fog/Mist BKN001 57 57     100%     30.17        
Sep 17 02:22 Calm 0.75 Fog/Mist VV002 58 58     100%     30.18        
Sep 17 02:19 Calm 1.5 Fog/Mist BKN001 58 58     100%     30.18        
Sep 17 02:09 Calm 4 Fog/Mist BKN001 60 59     96%     30.18        
Sep 17 02:06 Calm 1.25 Fog/Mist OVC001 59 59     100%     30.18        
Sep 17 01:54 Calm 0.75 Fog/Mist OVC001 59 59     100%     30.18        
Sep 17 01:52 Calm 1.5 Fog/Mist OVC001 60 59     96%     30.18 30.17      
Sep 17 01:22 Calm 6 Fog/Mist BKN001 60 59     96%     30.19        
Sep 17 01:13 Calm 9 Partly Cloudy SCT001 61 59     93%     30.19        
Sep 17 00:52 Calm 10 Clear CLR 61 59     93%     30.2 30.18      
Sep 16 23:52 Calm 6 Fog/Mist CLR 63 62     97%     30.2 30.19      
Sep 16 23:20 Calm 9 Clear CLR 63 62     97%     30.21        
Sep 16 23:12 Calm 2.5 Fog/Mist CLR 64 63     96%     30.21        
Sep 16 22:52 Calm 9 Clear CLR 67 63     87%     30.21 30.19      
Sep 16 21:52 Calm 9 Mostly Clear FEW055 66 65     96%     30.21 30.2      
Sep 16 20:52 Calm 10 Mostly Clear FEW050 68 65     90%     30.21 30.2      
Sep 16 19:52 Calm 10 Clear CLR 71 68     90%   72 30.2 30.19      
Sep 16 18:52 Calm 10 Clear CLR 75 68     79%   76 30.19 30.19      
Sep 16 17:52 N 3 10 Partly Cloudy FEW065 SCT080 82 66     58%   84 30.19 30.19      
Sep 16 16:52 NW 5 10 Mostly Cloudy BKN047 83 66     57%   85 30.19 30.18      
Sep 16 15:52 Calm 10 Mostly Cloudy BKN050 BKN055 85 64     50%   86 30.2 30.19      
Sep 16 14:52 Calm 10 Mostly Clear FEW048 86 65     50%   88 30.2 30.19      
Sep 16 13:52 N 3 10 Clear CLR 84 64     51%   85 30.23 30.22      
Sep 16 12:52 N 6 10 Mostly Clear FEW036 82 64     55%   84 30.23 30.22      
Sep 16 11:52 3 10 Mostly Clear FEW030 79 66     65%   80 30.24 30.23      
Sep 16 10:52 Calm 10 Clear CLR 78 68     71%   79 30.25 30.24      
Sep 16 09:52 Calm 10 Clear CLR 74 66     76%   75 30.25 30.25      
Sep 16 08:52 Calm 10 Clear CLR 67 63     87%     30.25 30.25      
Sep 16 07:52 Calm 10 Partly Cloudy SCT039 59 57     93%     30.25 30.25      
Sep 16 06:52 Calm 10 Mostly Clear FEW030 56 54     93%     30.23 30.23      
Sep 16 05:52 Calm 10 Partly Cloudy SCT060 55 53     93%     30.22 30.21      
Sep 16 04:52 Calm 10 Partly Cloudy SCT001 SCT055 56 55     97%     30.21 30.21      
Sep 16 04:49 Calm 10 Partly Cloudy SCT001 55 55     100%     30.21        
Sep 16 03:52 Calm 10 Mostly Clear FEW065 57 56     96%     30.21 30.2      
Sep 16 02:52 Calm 10 Mostly Cloudy SCT033 BKN040 59 57     93%     30.22 30.21      
Sep 16 01:52 Calm 10 Mostly Cloudy BKN039 58 56     93%     30.21 30.21      
Sep 16 01:07 Calm 10 Mostly Clear FEW001 57 56     96%     30.21        
Sep 16 00:52 Calm 10 Clear CLR 57 56     96%     30.21 30.2      
Sep 15 23:52 Calm 10 Clear CLR 58 56     93%     30.21 30.2      
Sep 15 22:52 Calm 10 Clear CLR 60 59     96%     30.21 30.21      
Sep 15 21:52 Calm 10 Clear CLR 61 60     97%     30.2 30.2      
Sep 15 20:52 Calm 10 Clear CLR 64 62     93%     30.2 30.2      
Sep 15 19:52 Calm 10 Clear CLR 68 65     90%     30.19 30.19      
Sep 15 18:52 Calm 10 Clear CLR 71 66     84%   72 30.18 30.18      
Sep 15 17:52 Calm 10 Clear CLR 80 64     58%   82 30.18 30.18      
Sep 15 16:52 SSW 3 10 Clear CLR 81 61     51%   82 30.18 30.18      
Sep 15 15:52 Calm 10 Clear CLR 81 60     49%   82 30.19 30.19      
Sep 15 14:52 N 3 10 Clear CLR 82 59     46%   82 30.19 30.19      
Sep 15 13:52 Calm 10 Clear CLR 80 59     49%   81 30.21 30.2      
May 15 12:30 NE 5 3 Light Rain and Fog/Mist FEW008 BKN015 OVC055 61 59     93%     29.77   0    
May 15 04:52 Calm 10 Clear CLR 44 41     89%     29.8 29.8      
May 14 18:52 WSW 7 10 Clear CLR 75 42     31%   74 29.81 29.81      
May 14 05:52 Calm 10 Clear CLR 33 31     92%     29.97 29.98      
May 12 08:52 3 10 Clear   47 28     48% 46   30.2 30.22      
May 12 04:52 Calm 10 Clear CLR 28 25     88%     30.18 30.21      
May 12 01:52 Calm 10 Clear CLR 29 25     85%     30.18 30.2      
Notice The following observation data may not be complete
Jun 12 04:52 Calm 8 Clear CLR   55      %     29.97 29.96      
Jun 11 14:52 WSW 14 10 Clear CLR 87 58     37%   86 29.86 29.85      
Jun 11 13:52   10 Clear CLR 84 59     43%   84 29.86 29.85      
Jun 11 02:52 Calm 10 Partly Cloudy SCT100 53 50     89%     29.93 29.93      
Notice The following observation data may not be complete
Jun 10 03:16   8 Clear CLR          %         0    
Jun 09 07:52 SSE 5 10 Cloudy OVC070 54 50     86%     29.69 29.68      
Jun 08 22:52 Calm 10 Clear CLR 58 52     81%     29.85 29.84      
Jun 08 10:52 NNW 3 10 Clear CLR 75 50     41%   74 30.02 30.01      
Jun 08 03:52 Calm 10 Clear CLR 42 39     89%     30.03 30.03      
Jun 08 02:52 Calm 10 Clear CLR 43 40     89%     30.03 30.03      
Jun 07 20:52 Calm 10 Clear CLR 58 51     78%     29.98 29.99      
Jun 07 12:52 NW 7 10 Clear CLR 71 49     45%   70 29.96 29.96      
Jun 07 09:52 Calm 10 Partly Cloudy SCT009 57 50     77%     30.02 30.03      
Jun 06 12:52 E 8 10 Light Rain OVC075 50 42     74% 47   29.89 29.9 0    
Jun 05 20:52 Calm 10 Cloudy BKN040 BKN055 OVC070 55 46     72%     29.89 29.89